Station KWNW3 - 9087069 - Kewaunee MET, WI Image indicating link to RSS feed of recent meteorological observations for station KWNW3


Conditions at KWNW3 as of
(1:30 am CDT)
0630 GMT on 06/17/2024:
     

Click on the graph icon in the table below to see a time series plot of the last five days of that observation.

5-day plot - Wind Direction Wind Direction (WDIR): SW ( 220 deg true )
5-day plot - Wind Speed Wind Speed (WSPD): 4.1 kts
5-day plot - Wind Gust Wind Gust (GST): 6.0 kts
5-day plot - Atmospheric Pressure Atmospheric Pressure (PRES):29.78 in
5-day plot - Air Temperature Air Temperature (ATMP): 71.2 °F
5-day plot - Wind Speed at 10 Meters Wind Speed at 10 meters (WSPD10M): 3.9 kts
5-day plot - Wind Speed at 20 Meters Wind Speed at 20 meters (WSPD20M): 5.8 kts
5-day plot -  Wind Speed, Wind Gust and Atmospheric Pressure Combined plot of Wind Speed, Gust, and Air Pressure
NOS Water Level Observation Network Water Level
Previous observations
TIME
(CDT)
5-day plot - Wind Direction
WDIR
 
5-day plot - Wind Speed
WSPD
kts
5-day plot - Wind Gust
GST
kts
5-day plot - Wave Height
WVHT
ft
5-day plot - Dominant Wave Period
DPD
sec
5-day plot - Average Wave Period
APD
sec
5-day plot - Mean Wave Direction
MWD
 
5-day plot - Atmospheric Pressure
PRES
in
5-day plot - Pressure Tendency
PTDY
in
5-day plot - Air Temperature
ATMP
°F
5-day plot - Water Temperature
WTMP
°F
5-day plot - Dew Point
DEWP
°F
5-day plot - Salinity
SAL
psu
5-day plot - Visibility
VIS
nmi
5-day plot - Tide (above MLLW)
TIDE
ft
2024-06-17 01:24 amSSW 5.1 8.0----29.78- 72.3-----
2024-06-17 01:18 amSSW 7.0 9.9----29.78- 72.3-----
2024-06-17 01:12 amSSW 7.0 11.1----29.78- 72.5-----
2024-06-17 01:06 amSSW 8.9 9.9----29.78- 73.0-----
2024-06-17 01:00 amSSW 8.9 11.1----29.78+0.03 72.7-----
2024-06-17 12:54 amSSW 8.0 12.0----29.78- 72.7-----
2024-06-17 12:48 amSSW 8.9 12.0----29.78- 71.6-----
2024-06-17 12:42 amSSW 8.9 11.1----29.78- 69.4-----
2024-06-17 12:36 amSSW 8.9 9.9----29.78- 68.2-----
2024-06-17 12:30 amSSW 8.0 9.9----29.78- 65.7-----
2024-06-17 12:24 amSSW 8.0 8.9----29.78- 65.7-----
2024-06-17 12:18 amSSW 8.0 9.9------ 71.4-----
2024-06-17 12:12 amSSW 7.0 9.9------ 71.1-----
2024-06-17 12:06 amSSW 7.0 8.9------ 65.8-----
2024-06-17 12:00 amSSW 6.0 8.0----29.78+0.06------
2024-06-16 11:54 pmSSW 5.1 8.0----29.78-------
2024-06-16 11:48 pm S 8.0 8.0----29.78-------
2024-06-16 11:42 pm S 7.0 8.0----29.78-------
2024-06-16 11:36 pm S 7.0 8.0----29.78-------
2024-06-16 11:30 pm S 6.0 7.0----29.77-------
2024-06-16 11:24 pm S 6.0 7.0----29.77-------
2024-06-16 11:18 pm S 5.1 6.0----29.77- 61.2-----
2024-06-16 11:12 pm S 6.0 6.0----29.77- 61.2-----
2024-06-16 11:06 pm S 6.0 7.0----29.76- 65.3-----
2024-06-16 11:00 pm-------29.76+0.04------
2024-06-16 10:54 pm-------29.75-------
2024-06-16 10:48 pm SW 5.1 7.0----29.75-------
2024-06-16 10:42 pm SW 5.1 7.0----29.75-------
2024-06-16 10:36 pm SW 5.1 8.0----29.75-------
2024-06-16 10:30 pmSSW 6.0 7.0----29.75- 60.8-----
2024-06-16 10:24 pm S 8.0 8.9----29.75- 68.5-----
2024-06-16 10:18 pm SW 6.0 8.0----29.75- 71.8-----
2024-06-16 10:12 pm SW 5.1 8.0----29.74- 68.4-----
2024-06-16 10:06 pm SW 5.1 8.0----29.74- 63.9-----
2024-06-16 10:00 pmSSW 4.1 7.0----29.74+0.01 59.4-----
2024-06-16 09:54 pmSSW 5.1 7.0----29.74- 58.8-----
2024-06-16 09:48 pm S 8.0 8.9----29.74- 59.2-----
2024-06-16 09:42 pm S 6.0 7.0----29.73- 61.0-----
2024-06-16 09:36 pm S 4.1 6.0----29.73- 60.1-----
2024-06-16 09:30 pm S 6.0 8.9----29.73- 59.7-----
2024-06-16 09:24 pmSSW 4.1 7.0----29.73- 59.5-----
2024-06-16 09:18 pm S 7.0 8.9----29.72- 59.5-----
2024-06-16 09:12 pm S 6.0 8.0----29.72- 59.5-----
2024-06-16 09:06 pm S 6.0 8.0----29.72- 59.5-----
2024-06-16 09:00 pm S 7.0 13.0----29.72-0.02 59.7-----
2024-06-16 08:54 pm S 8.0 11.1----29.72- 59.5-----
2024-06-16 08:48 pm S 11.1 12.0----29.72- 59.4-----
2024-06-16 08:42 pm S 11.1 13.0----29.72- 59.4-----
2024-06-16 08:36 pm S 11.1 12.0----29.72- 58.8-----
2024-06-16 08:30 pm S 8.9 11.1------ 59.0-----
2024-06-16 08:24 pm S 9.9 11.1------ 59.2-----
2024-06-16 08:18 pm S 8.9 9.9------ 59.2-----
2024-06-16 08:12 pm S 9.9 11.1------ 59.4-----
2024-06-16 08:06 pm S 9.9 12.0------ 59.7-----
2024-06-16 08:00 pm S 11.1 13.0----29.72-0.02------
2024-06-16 07:54 pm S 8.9 11.1----29.72-------
2024-06-16 07:48 pm S 11.1 12.0----29.72-------
2024-06-16 07:42 pm S 11.1 13.0----29.72-------
2024-06-16 07:36 pm S 12.0 14.0----29.72-------
2024-06-16 07:30 pm S 12.0 13.0----29.72-------
2024-06-16 07:24 pm S 12.0 14.0----29.72-------
2024-06-16 07:18 pm S 13.0 15.0----29.72- 61.0-----
2024-06-16 07:12 pm S 13.0 15.0----29.73- 61.2-----
2024-06-16 07:06 pm S 13.0 15.0----29.73- 60.8-----
2024-06-16 07:00 pm S 12.0 13.0----29.73-0.04 60.6-----
2024-06-16 06:54 pm S 11.1 12.0----29.73- 60.6-----
2024-06-16 06:48 pm S 11.1 12.0----29.73- 60.4-----
2024-06-16 06:42 pm S 9.9 12.0----29.73- 60.4-----
2024-06-16 06:36 pm S 9.9 12.0----29.73- 60.4-----
2024-06-16 06:30 pm S 9.9 11.1----29.73- 60.8-----
2024-06-16 06:24 pm S 11.1 12.0----29.73- 61.3-----
2024-06-16 06:18 pm S 11.1 13.0----29.74- 61.3-----
2024-06-16 06:12 pm S 12.0 13.0----29.74- 61.0-----
2024-06-16 06:06 pm S 11.1 13.0----29.74- 60.8-----
2024-06-16 06:00 pm S 11.1 13.0----29.74-0.06------
2024-06-16 05:54 pm S 9.9 13.0----29.74-------
2024-06-16 05:48 pm S 12.0 13.0----29.74- 60.8-----
2024-06-16 05:42 pm S 12.0 13.0----29.74- 60.8-----
2024-06-16 05:36 pm S 11.1 13.0----29.74- 61.2-----
2024-06-16 05:30 pm S 11.1 12.0------ 61.2-----
2024-06-16 05:24 pm S 9.9 12.0------ 61.5-----
2024-06-16 05:18 pm S 11.1 12.0----29.75- 61.5-----
2024-06-16 05:12 pm S 9.9 12.0----29.75- 61.2-----
2024-06-16 05:06 pm S 9.9 13.0----29.75- 61.0-----
2024-06-16 05:00 pm S 11.1 13.0----29.75-0.06 60.4-----
2024-06-16 04:54 pm S 11.1 13.0----29.75- 60.3-----
2024-06-16 04:48 pm S 12.0 15.0----29.75-------
2024-06-16 04:42 pm S 13.0 15.0----29.76-------
2024-06-16 04:36 pm S 13.0 15.0----29.76-------
2024-06-16 04:30 pm S 14.0 15.9----29.76- 61.2-----
2024-06-16 04:24 pm S 14.0 15.0----29.76- 61.3-----
2024-06-16 04:18 pm S 13.0 15.0----29.76-------
2024-06-16 04:12 pm S 13.0 15.0----29.76-------
2024-06-16 04:06 pm S 12.0 15.0----29.77-------
2024-06-16 04:00 pm S 12.0 14.0----29.77-0.04 60.4-----
2024-06-16 03:54 pm S 11.1 14.0----29.77- 61.0-----
2024-06-16 03:48 pm S 14.0 15.0----29.77-------
2024-06-16 03:42 pm S 13.0 15.0----29.78-------
2024-06-16 03:36 pm S 12.0 15.9----29.78-------
2024-06-16 03:30 pm S 14.0 18.1----29.78- 63.3-----
2024-06-16 03:24 pm S 15.0 20.0----29.78- 63.0-----
2024-06-16 03:18 pm S 14.0 17.1----29.78- 63.5-----
2024-06-16 03:12 pm S 14.0 17.1----29.79- 63.5-----
2024-06-16 03:06 pm S 14.0 17.1----29.79- 62.8-----
2024-06-16 03:00 pm S 14.0 18.1----29.79-0.04 63.9-----
2024-06-16 02:54 pm S 15.0 18.1----29.80- 63.3-----
2024-06-16 02:48 pm S 12.0 15.0----29.80- 63.3-----
2024-06-16 02:42 pm S 13.0 15.0----29.80- 63.9-----
2024-06-16 02:36 pm S 15.0 17.1----29.80- 63.9-----
2024-06-16 02:30 pm S 15.0 19.0----29.80-------
2024-06-16 02:24 pm S 15.9 19.0----29.80-------
2024-06-16 02:18 pm S 15.0 19.0----29.80- 64.6-----
2024-06-16 02:12 pm S 15.0 19.0----29.81- 65.3-----
2024-06-16 02:06 pm S 15.0 20.0----29.81- 64.0-----
2024-06-16 02:00 pm S 15.0 20.0----29.81-0.06------
2024-06-16 01:54 pm S 14.0 18.1----29.81-------
2024-06-16 01:48 pm S 13.0 18.1----29.81-------
2024-06-16 01:42 pm S 15.0 19.0----29.81-------
2024-06-16 01:36 pm S 14.0 22.9----29.81-------
2024-06-16 01:30 pm S 15.9 22.0----29.82- 61.3-----
2024-06-16 01:24 pm S 17.1 22.9----29.82- 61.2-----
2024-06-16 01:18 pm S 19.0 24.1----29.82- 59.2-----
2024-06-16 01:12 pm S 15.9 19.0----29.81- 58.3-----
2024-06-16 01:06 pm S 14.0 17.1----29.81- 57.9-----
2024-06-16 01:00 pm S 14.0 17.1----29.81-0.04 57.9-----
2024-06-16 12:54 pm S 13.0 17.1----29.81- 57.9-----
2024-06-16 12:48 pm S 14.0 15.9----29.81- 57.7-----
2024-06-16 12:42 pm S 13.0 15.0----29.81- 57.9-----
2024-06-16 12:36 pm S 13.0 15.0----29.81- 57.9-----
2024-06-16 12:30 pm S 12.0 14.0----29.81- 57.9-----
2024-06-16 12:24 pm S 13.0 15.0----29.82- 57.9-----
2024-06-16 12:18 pm S 13.0 15.9----29.82- 58.3-----
2024-06-16 12:12 pm S 14.0 18.1----29.83- 58.5-----
2024-06-16 12:06 pm S 15.9 18.1----29.83- 58.5-----
2024-06-16 12:00 pm S 15.0 19.0----29.83-0.07 57.9-----
2024-06-16 11:54 am S 15.0 17.1----29.84- 57.7-----
2024-06-16 11:48 am S 14.0 17.1----29.84-------
2024-06-16 11:42 am S 13.0 15.0----29.84-------
2024-06-16 11:36 am S 13.0 15.0----29.83-------
2024-06-16 11:30 am S 12.0 14.0----29.83-------
2024-06-16 11:24 am S 12.0 15.9----29.84-------
2024-06-16 11:18 am S 14.0 15.9----29.84- 57.9-----
2024-06-16 11:12 am S 14.0 18.1----29.86- 58.3-----
2024-06-16 11:06 am S 15.9 19.0----29.86- 58.6-----
2024-06-16 11:00 am S 15.9 19.0----29.87-0.04 59.7-----
2024-06-16 10:54 am S 17.1 22.0----29.90- 60.3-----
2024-06-16 10:48 am S 15.9 19.0----29.87-------
2024-06-16 10:42 am S 12.0 17.1----29.85-------
2024-06-16 10:36 am S 14.0 19.0----29.85-------
2024-06-16 10:30 am S 17.1 20.0----29.84- 58.5-----
2024-06-16 10:24 amSSE 15.9 20.0----29.83- 58.5-----
2024-06-16 10:18 amSSE 17.1 20.0----29.84-------
2024-06-16 10:12 amSSE 15.9 19.0----29.84-------
2024-06-16 10:06 amSSE 17.1 19.0----29.84-------
2024-06-16 10:00 amSSE 18.1 21.0----29.85-0.02 57.9-----
2024-06-16 09:54 amSSE 18.1 20.0----29.86- 58.1-----
2024-06-16 09:48 am S 18.1 22.0----29.88-------
2024-06-16 09:42 am S 18.1 22.9----29.88-------
2024-06-16 09:36 am S 19.0 24.1----29.88-------
2024-06-16 09:30 am-------29.89-------
2024-06-16 09:24 am-------29.90-------
2024-06-16 09:18 am S 19.0 21.0----29.91- 58.5-----
2024-06-16 09:12 am S 15.9 18.1----29.91- 58.6-----
2024-06-16 09:06 am S 14.0 17.1----29.91- 58.8-----
2024-06-16 09:00 am S 15.9 18.1----29.91+0.01------
2024-06-16 08:54 am S 15.0 17.1----29.90-------
2024-06-16 08:48 am S 14.0 17.1----29.91- 59.0-----
2024-06-16 08:42 am S 14.0 17.1----29.91- 59.5-----
2024-06-16 08:36 am S 15.0 19.0----29.91- 59.9-----
2024-06-16 08:30 am S 15.0 17.1----29.91- 60.6-----
2024-06-16 08:24 am S 15.0 19.0----29.91- 61.7-----
2024-06-16 08:18 am S 14.0 18.1----29.91-------
2024-06-16 08:12 amSSW 15.0 19.0----29.91-------
2024-06-16 08:06 amSSW 14.0 18.1----29.91-------
2024-06-16 08:00 amSSW 14.0 19.0----29.91+0.00 63.3-----
2024-06-16 07:54 am S 15.9 20.0----29.94- 62.4-----
2024-06-16 07:48 am SW 13.0 18.1----29.89- 59.5-----
2024-06-16 07:42 am S 8.9 11.1----29.89- 59.4-----
2024-06-16 07:36 am S 8.9 11.1----29.89- 59.2-----
2024-06-16 07:30 am S 8.0 8.9----29.88- 59.0-----
2024-06-16 07:24 am S 7.0 8.9----29.89- 59.0-----
2024-06-16 07:18 am-------29.88- 59.2-----
2024-06-16 07:12 am-------29.88- 59.4-----
2024-06-16 07:06 am-------29.88- 59.5-----
2024-06-16 07:00 am S 8.9 12.0----29.87-0.03 59.7-----
2024-06-16 06:54 am S 11.1 13.0----29.88- 59.7-----
2024-06-16 06:48 am S 11.1 13.0----29.88- 59.5-----
2024-06-16 06:42 amSSE 11.1 14.0----29.88- 59.4-----
2024-06-16 06:36 am S 11.1 12.0----29.88- 59.4-----
2024-06-16 06:30 am S 9.9 12.0----29.89- 59.2-----
2024-06-16 06:24 am S 7.0 8.9----29.90- 59.7-----
2024-06-16 06:18 am S 8.9 13.0----29.89-------
2024-06-16 06:12 am S 12.0 14.0----29.89-------
2024-06-16 06:06 am S 11.1 12.0----29.90-------
2024-06-16 06:00 am S 11.1 12.0----29.90-------
2024-06-16 05:54 am S 9.9 12.0----29.90-------
2024-06-16 05:48 am S 8.9 9.9----29.90-------
2024-06-16 05:42 am S 8.9 12.0----29.90-------
2024-06-16 05:36 am S 11.1 12.0----29.90-------
2024-06-16 05:30 am S 9.9 11.1----29.90-------
2024-06-16 05:24 am S 7.0 8.9----29.90-------
2024-06-16 05:18 am S 8.0 9.9----29.90- 59.5-----
2024-06-16 05:12 am S 8.9 9.9----29.90- 59.7-----
2024-06-16 05:06 am S 8.9 9.9----29.90- 59.5-----
2024-06-16 05:00 am S 8.9 9.9----29.91-0.04------
2024-06-16 04:54 am S 9.9 11.1----29.90-------
2024-06-16 04:48 am S 7.0 8.0----29.90- 59.2-----
2024-06-16 04:42 am S 7.0 8.9----29.90- 59.7-----
2024-06-16 04:36 am S 8.9 12.0----29.90- 59.7-----
2024-06-16 04:30 am S 9.9 12.0----29.90- 59.7-----
2024-06-16 04:24 am S 9.9 12.0----29.90- 59.7-----
2024-06-16 04:18 am S 8.9 9.9----29.90-------
2024-06-16 04:12 am S 9.9 12.0----29.90-------
2024-06-16 04:06 am S 11.1 13.0----29.91-------
2024-06-16 04:00 am S 12.0 13.0----29.91-0.04------
2024-06-16 03:54 am S 9.9 11.1----29.91-------
2024-06-16 03:48 am S 9.9 11.1----29.90- 60.4-----
2024-06-16 03:42 am S 9.9 12.0----29.91- 60.3-----
2024-06-16 03:36 am S 8.9 9.9----29.91- 60.3-----
2024-06-16 03:30 am S 8.0 9.9----29.91- 60.4-----
2024-06-16 03:24 am S 8.0 8.9----29.91- 60.4-----
2024-06-16 03:18 am S 7.0 8.9----29.91- 60.8-----
2024-06-16 03:12 am S 8.0 9.9----29.92- 60.8-----
2024-06-16 03:06 am S 7.0 8.9----29.92- 61.0-----
2024-06-16 03:00 am S 8.0 8.9------ 61.5-----
2024-06-16 02:54 am S 8.0 9.9------ 61.7-----
2024-06-16 02:48 am S 8.0 9.9----29.93- 61.2-----
2024-06-16 02:42 am S 6.0 8.0----29.93- 61.3-----
2024-06-16 02:36 am S 7.0 8.9----29.93- 61.9-----
2024-06-16 02:30 am S 8.0 9.9----29.93- 62.4-----
2024-06-16 02:24 am S 9.9 12.0----29.93- 62.2-----
2024-06-16 02:18 am S 7.0 8.9----29.93- 62.1-----
2024-06-16 02:12 am S 6.0 9.9----29.93- 62.6-----
2024-06-16 02:06 am S 7.0 11.1----29.94- 63.3-----
2024-06-16 02:00 am S 8.0 9.9----29.94-0.03 63.1-----
2024-06-16 01:54 am S 6.0 8.9----29.94- 63.0-----